Flag for Germany Weather past 2 weeks in Herrenberg, Baden-Württemberg, Germany

Now
75 °F

Scattered showers. Broken clouds.


Feels Like: 78 °F
Forecast: 52 / 78 °F
Wind: 2 mph from Northwest

Location: Stuttgart-Echterdingen

Current Time: Jul 25, 2014 at 6:34:58 PM

Latest Report: Jul 25, 2014 at 6:20 PM


Visibility: N/A

Pressure: 29.89 "Hg

Humidity: 50%

Dew point: 55 °F

Location of HerrenbergLocation

Historic Weather in Herrenberg — Graph

°F

Herrenberg temperature yesterday

Maximum temperature yesterday: 79 °F (at 2:20 PM)
Minimum temperature yesterday: 59 °F (at 4:20 AM)
Average temperature yesterday: 70 °F

Past Weeks' High & Low Weather Summary

 TemperatureHumidityPressure
High91 °F (Jul 19, 3:50 PM)100% (Jul 11, 3:20 AM)30.21 "Hg (Jul 11, 3:20 AM)
Low57 °F (Jul 10, 4:20 PM)22% (Jul 18, 2:50 PM)29.83 "Hg (Jul 13, 4:20 PM)
Average69 °F70%29.99 "Hg
* Reported Jul 10 4:20 PM — Jul 25 4:50 PM, Herrenberg, Weather by CustomWeather, © 2014

Note: Actual official high and low records may vary slightly from our data, if they occured in-between our weather recording intervals... More about our weather records

Advertising

Herrenberg weather history for previous 24 hours

 ConditionsComfort  
Time TempWeatherWind HumidityBarometerVisibility
4:50 PM
Jul 25
77 °FScattered clouds.5 mph57%29.89 "HgN/A
4:20 PM75 °FScattered clouds.5 mph54%29.89 "HgN/A
3:50 PM75 °FPassing clouds.6 mph50%29.89 "HgN/A
3:20 PM75 °FPassing clouds.3 mph61%29.92 "HgN/A
2:20 PM70 °FScattered showers. Scattered clouds.3 mph73%29.92 "HgN/A
1:50 PM66 °FThunderstorms. Partly sunny.9 mph88%29.92 "HgN/A
1:20 PM75 °FThunderstorms. Scattered clouds.5 mph50%29.92 "HgN/A
12:50 PM77 °FPassing clouds.2 mph51%29.92 "HgN/A
12:20 PM75 °FPassing clouds.2 mph54%29.92 "HgN/A
11:50 AM73 °FPassing clouds.3 mph53%29.95 "HgN/A
11:20 AM73 °FPassing clouds.3 mph57%29.95 "HgN/A
10:50 AM72 °FPassing clouds.3 mph61%29.95 "HgN/A
10:20 AM70 °FSunny.1 mph69%29.95 "Hg10 mi
9:50 AM66 °FSunny.3 mph73%29.95 "Hg10 mi
9:20 AM66 °FSunny.2 mph78%29.95 "Hg10 mi
8:50 AM64 °FSunny.3 mph78%29.95 "Hg10 mi
8:20 AM63 °FSunny.3 mph88%29.95 "Hg10 mi
7:50 AM63 °FSunny.2 mph83%29.95 "Hg10 mi
7:20 AM61 °FSunny.2 mph83%29.95 "Hg10 mi
6:50 AM63 °FSunny.No wind83%29.95 "Hg10 mi
6:20 AM61 °FClear.3 mph83%29.95 "Hg10 mi
5:50 AM61 °FClear.2 mph83%29.95 "Hg10 mi
5:20 AM61 °FClear.1 mph83%29.95 "Hg10 mi
4:50 AM59 °FClear.1 mph88%29.95 "Hg10 mi
4:20 AM59 °FClear.2 mph88%29.95 "Hg10 mi
3:50 AM59 °FClear.3 mph88%29.92 "Hg10 mi
3:20 AM59 °FClear.3 mph88%29.92 "Hg10 mi
2:50 AM61 °FClear.1 mph83%29.92 "Hg10 mi
2:20 AM61 °FClear.2 mph83%29.92 "Hg10 mi
1:50 AM63 °FClear.5 mph77%29.92 "Hg10 mi
1:20 AM64 °FClear.5 mph73%29.92 "Hg10 mi
12:50 AM64 °FClear.1 mph68%29.92 "Hg10 mi
12:20 AM66 °FClear.6 mph64%29.95 "Hg10 mi
11:50 PM
Jul 24
68 °FClear.No wind64%29.95 "Hg10 mi
11:20 PM68 °FClear.7 mph60%29.92 "Hg10 mi
10:50 PM68 °FClear.6 mph60%29.92 "Hg10 mi
10:20 PM70 °FClear.5 mph57%29.92 "Hg10 mi
9:50 PM70 °FSunny.5 mph57%29.92 "Hg10 mi
9:20 PM73 °FSunny.5 mph47%29.92 "Hg10 mi
8:50 PM73 °FSunny.6 mph47%29.92 "Hg10 mi
8:20 PM77 °FSunny.6 mph36%29.89 "Hg10 mi
7:50 PM77 °FSunny.6 mph34%29.89 "Hg10 mi
7:20 PM79 °FPassing clouds.5 mph32%29.89 "HgN/A
6:50 PM77 °FSunny.7 mph36%29.89 "Hg10 mi
6:20 PM79 °FSunny.6 mph37%29.89 "Hg10 mi
Weather by CustomWeather, © 2014

See weather overviewHow to use our weather pages